Location: Izdebno
(52.6670°N, 16.2170°E)
Time: 06:23:41
(UTC+01:00)

Explorer 7 - All Passes

Search period start: 06 February 2023 00:00
Search period end: 16 February 2023 00:00
Orbit: 480 x 660 km, 50.3° (Epoch: 05 February)

Date Brightness Start Highest point End Pass type
(mag) Time Alt. Az. Time Alt. Az. Time Alt. Az.
06 Feb - 10:45:25 10° SSW 10:48:38 23° SE 10:52:00 10° E daylight
06 Feb - 12:24:16 10° WSW 12:28:19 54° SSE 12:32:39 10° E daylight
06 Feb - 14:04:10 10° W 14:08:25 63° S 14:12:56 10° ESE daylight
06 Feb - 15:44:21 10° W 15:48:23 34° SSW 15:52:36 10° SE daylight
06 Feb - 17:26:19 10° WSW 17:27:49 11° SW 17:29:19 10° SSW visible
07 Feb - 10:45:52 10° SSW 10:49:22 29° SSE 10:53:05 10° E daylight
07 Feb - 12:25:06 10° WSW 12:29:12 60° S 12:33:34 10° E daylight
07 Feb - 14:05:05 10° W 14:09:18 57° S 14:13:46 10° ESE daylight
07 Feb - 15:45:23 10° W 15:49:10 28° SSW 15:53:06 10° SSE daylight
08 Feb - 09:09:39 10° SSE 09:10:50 11° SE 09:12:02 10° ESE daylight
08 Feb - 10:46:27 10° SW 10:50:09 36° SSE 10:54:04 10° E daylight
08 Feb - 12:25:58 10° WSW 12:30:05 64° S 12:34:27 10° E daylight
08 Feb - 14:06:00 10° W 14:10:10 51° SSW 14:14:34 10° ESE daylight
08 Feb - 15:46:30 10° W 15:49:55 22° SW 15:53:25 10° SSE daylight
09 Feb - 09:09:06 10° S 09:11:28 15° SE 09:13:54 10° ESE daylight
09 Feb - 10:47:07 10° SW 10:50:57 43° SSE 10:55:01 10° E daylight
09 Feb - 12:26:50 10° W 12:30:57 65° S 12:35:19 10° E daylight
09 Feb - 14:06:55 10° W 14:10:59 43° SSW 14:15:17 10° SE daylight
09 Feb - 15:47:47 10° WSW 15:50:36 17° SW 15:53:28 10° S daylight
10 Feb - 09:09:11 10° SSW 09:12:08 20° SE 09:15:11 10° E daylight
10 Feb - 10:47:51 10° WSW 10:51:46 51° SSE 10:55:54 10° E daylight
10 Feb - 12:27:42 10° W 12:31:49 63° S 12:36:11 10° ESE daylight
10 Feb - 14:07:51 10° W 14:11:47 35° SSW 14:15:55 10° SE daylight
10 Feb - 15:49:31 10° WSW 15:51:14 12° SW 15:53:00 10° SSW daylight
11 Feb - 09:09:32 10° SSW 09:12:49 26° SSE 09:16:16 10° E daylight
11 Feb - 10:48:39 10° WSW 10:52:35 57° S 10:56:47 10° E daylight
11 Feb - 12:28:35 10° W 12:32:39 58° S 12:37:00 10° ESE daylight
11 Feb - 14:08:50 10° W 14:12:32 29° SSW 14:16:24 10° SSE daylight
12 Feb - 09:10:01 10° SW 09:13:33 33° SSE 09:17:15 10° E daylight
12 Feb - 10:49:28 10° WSW 10:53:26 62° S 10:57:38 10° E daylight
12 Feb - 12:29:28 10° W 12:33:29 52° SSW 12:37:46 10° ESE daylight
12 Feb - 14:09:53 10° W 14:13:15 22° SSW 14:16:44 10° SSE daylight
13 Feb - 07:32:58 10° S 07:34:53 13° SE 07:36:51 10° ESE daylight
13 Feb - 09:10:39 10° SW 09:14:18 40° SSE 09:18:10 10° E daylight
13 Feb - 10:50:18 10° W 10:54:16 64° S 10:58:29 10° E daylight
13 Feb - 12:30:20 10° W 12:34:17 44° SSW 12:38:28 10° SE daylight
13 Feb - 14:11:06 10° WSW 14:13:55 17° SW 14:16:49 10° S daylight
14 Feb - 07:32:51 10° S 07:35:30 18° SE 07:38:15 10° E daylight
14 Feb - 09:11:20 10° WSW 09:15:05 48° SSE 09:19:03 10° E daylight
14 Feb - 10:51:08 10° W 10:55:05 63° S 10:59:18 10° ESE daylight
14 Feb - 12:31:14 10° W 12:35:03 36° SSW 12:39:05 10° SE daylight
14 Feb - 14:12:39 10° WSW 14:14:32 13° SW 14:16:27 10° SSW daylight
15 Feb - 07:33:05 10° SSW 07:36:10 23° SSE 07:39:22 10° E daylight
15 Feb - 09:12:04 10° WSW 09:15:52 55° SSE 09:19:53 10° E daylight
15 Feb - 10:51:58 10° W 10:55:54 59° S 11:00:05 10° ESE daylight
15 Feb - 12:32:10 10° W 12:35:47 29° SSW 12:39:35 10° SSE daylight
